Regional Weather Roundup
Issued by NWS

Home | Current Version | Previous Version | Text Only | Print | Product List | Glossary On
Versions: 1 2 3 4 5 6 7 8 9 10 11 12 13 14 15 16 17 18 19 20 21 22 23 24 25 26 27 28 29 30 31 32 33 34 35 36 37 38 39 40 41 42 43 44 45 46 47 48 49 50
000
ASUS43 KTOP 182208
RWRKS

WEATHER ROUNDUP FOR KANSAS
NATIONAL WEATHER SERVICE GOODLAND KS
500 PM CDT FRI APR 18 2014

NOTE:  "FAIR" INDICATES FEW OR NO CLOUDS BELOW 12,000 FEET WITH NO
SIGNIFICANT WEATHER AND/OR OBSTRUCTIONS TO VISIBILITY.

KSZ001>006-013>018-027>032-041>047-182300-
NORTHWEST KANSAS

CITY           SKY/WX    TMP DP  RH WIND       PRES   REMARKS
GOODLAND       MOSUNNY   76  39  26 S26G33    29.92F
HAYS           SUNNY     72  43  35 S26G37    30.03F
HILL CITY      SUNNY     74  41  30 S22G32    29.99F
RUSSELL        MOSUNNY   71  42  35 S26G35    30.04F
$$

KSZ061>065-074>080-084>089-182300-
SOUTHWEST KANSAS

CITY           SKY/WX    TMP DP  RH WIND       PRES   REMARKS
DODGE CITY     SUNNY     71  41  33 S25G32    30.04F
ELKHART          N/A     74  42  31 S21         N/A
GARDEN CITY    SUNNY     70  43  37 S26G35    30.00F
GREAT BEND     SUNNY     70  43  37 S28G33    30.06F
LIBERAL        SUNNY     72  43  35 S24G31    30.03F
PRATT          SUNNY     70  39  32 S23       30.10F
$$

KSZ066>073-081>083-090>101-182300-
SOUTHEAST KANSAS

CITY           SKY/WX    TMP DP  RH WIND       PRES   REMARKS
CHANUTE        SUNNY     70  40  33 CALM      30.17F
COFFEYVILLE    SUNNY     73  40  30 VRB6      30.16F
HUTCHINSON     SUNNY     71  42  35 S16G31    30.11F
MEDICINE LODGE   N/A     72  42  34 S20       30.09F
NEWTON         SUNNY     70  41  35 S15G22    30.16F
PARSONS        SUNNY     72  39  30 S7        30.17F
WICHITA INTL   MOSUNNY   72  43  35 S16G24    30.13F
WICHITA JABRA  SUNNY     71  43  36 S10       30.13F
WICHITA MCCONL SUNNY     71  41  33 S15       30.13F
WINFIELD       SUNNY     71  42  35 S12       30.14F
$$

KSZ007>012-019>026-033>040-048>060-102>105-182300-
NORTHEAST KANSAS

CITY           SKY/WX    TMP DP  RH WIND       PRES   REMARKS
CONCORDIA      SUNNY     72  42  34 S22G33    30.07F
EMPORIA        SUNNY     69  40  34 SE9       30.15F
LAWRENCE       SUNNY     70  41  34 SE13      30.18F
MANHATTAN      MOSUNNY   71  41  33 S17       30.12F
OLATHE IND     SUNNY     67  40  37 VRB7      30.19F
OLATHE EXE     SUNNY     66  41  40 S8        30.18F
SALINA         SUNNY     72  41  32 S14G28    30.10F
TOPEKA BILLARD MOSUNNY   70  42  36 SE12      30.17F
TOPEKA FORBES  MOSUNNY   69  41  36 SE16G23   30.16F
$$



USA.gov is the U.S. government's official web portal to all federal, state and local government web resources and services.